QPF
0.00 0.00 0.00 0.00 0.00 0.00 0.00 0.00 0.00 0.00 0.00 0.00 0.00 0.00 0.00 0.00 0.00 0.00 0.00 0.00 0.00 0.00 0.00 0.00 0.01 0.01 0.01 0.01 0.01 0.02 0.03 0.04 0.04 0.04 0.04 0.03 0.02 0.01 0.01 0.01 0.02 0.03 0.06 0.06
0.00 0.00 0.00 0.00 0.00 0.00 0.00 0.00 0.00 0.00 0.00 0.00 0.00 0.01 0.01 0.00 0.00 0.00 0.00 0.00 0.00 0.00 0.00 0.00 0.01 0.01 0.01 0.01 0.01 0.01 0.01 0.01 0.02 0.02 0.03 0.02 0.02 0.02 0.02 0.02 0.03 0.04 0.05 0.03
0.00 0.00 0.00 0.00 0.00 0.00 0.00 0.00 0.00 0.00 0.00 0.00 0.00 0.00 0.00 0.00 0.00 0.00 0.00 0.00 0.00 0.01 0.00 0.01 0.01 0.01 0.01 0.01 0.01 0.01 0.01 0.02 0.02 0.02 0.02 0.02 0.02 0.02 0.02 0.02 0.02 0.02 0.02 0.01
0.00 0.00 0.00 0.00 0.00 0.00 0.00 0.00 0.00 0.00 0.00 0.00 0.00 0.00 0.00 0.00 0.00 0.00 0.00 0.00 0.01 0.01 0.01 0.01 0.01 0.01 0.01 0.01 0.01 0.01 0.01 0.02 0.02 0.02 0.02 0.02 0.02 0.03 0.03 0.03 0.02 0.03 0.02 0.02
0.00 0.00 0.00 0.00 0.00 0.00 0.00 0.00 0.00 0.00 0.00 0.00 0.00 0.01 0.01 0.00 0.00 0.00 0.00 0.00 0.01 0.01 0.01 0.01 0.01 0.01 0.00 0.00 0.01 0.02 0.02 0.02 0.02 0.03 0.03 0.02 0.02 0.04 0.04 0.04 0.04 0.05 0.05 0.03
0.00 0.00 0.00 0.00 0.00 0.00 0.00 0.00 0.00 0.00 0.00 0.00 0.00 0.01 0.02 0.01 0.00 0.00 0.00 0.00 0.01 0.01 0.01 0.00 0.01 0.01 0.01 0.01 0.01 0.01 0.01 0.02 0.02 0.03 0.02 0.02 0.03 0.05 0.07 0.07 0.08 0.10 0.09 0.08
0.00 0.00 0.00 0.00 0.00 0.00 0.00 0.01 0.00 0.00 0.00 0.00 0.00 0.00 0.01 0.00 0.00 0.00 0.00 0.00 0.00 0.00 0.01 0.01 0.01 0.01 0.01 0.01 0.01 0.02 0.02 0.02 0.02 0.02 0.02 0.02 0.02 0.03 0.04 0.04 0.05 0.06 0.06 0.07
0.01 0.01 0.00 0.00 0.00 0.00 0.00 0.00 0.00 0.00 0.00 0.00 0.00 0.00 0.00 0.00 0.00 0.01 0.01 0.01 0.01 0.01 0.02 0.03 0.02 0.02 0.02 0.02 0.01 0.02 0.02 0.02 0.01 0.01 0.01 0.01 0.02 0.02 0.02 0.02 0.03 0.06 0.07 0.07
0.01 0.00 0.00 0.00 0.00 0.00 0.00 0.00 0.00 0.00 0.01 0.00 0.00 0.00 0.00 0.00 0.01 0.02 0.02 0.02 0.02 0.03 0.03 0.03 0.03 0.03 0.02 0.02 0.02 0.02 0.02 0.02 0.01 0.01 0.00 0.01 0.01 0.01 0.01 0.01 0.02 0.04 0.06 0.06
0.01 0.00 0.00 0.00 0.00 0.00 0.00 0.00 0.01 0.02 0.01 0.01 0.01 0.01 0.01 0.01 0.01 0.02 0.02 0.01 0.01 0.03 0.04 0.03 0.02 0.03 0.03 0.03 0.02 0.02 0.02 0.02 0.01 0.01 0.00 0.00 0.00 0.01 0.02 0.02 0.02 0.04 0.06 0.06
0.03 0.02 0.01 0.00 0.00 0.00 0.00 0.01 0.01 0.02 0.02 0.02 0.02 0.01 0.01 0.01 0.01 0.01 0.01 0.01 0.01 0.02 0.04 0.05 0.03 0.02 0.02 0.02 0.02 0.02 0.02 0.02 0.01 0.00 0.00 0.00 0.00 0.01 0.03 0.04 0.04 0.05 0.05 0.04
0.05 0.05 0.02 0.01 0.00 0.00 0.00 0.00 0.00 0.01 0.02 0.02 0.02 0.01 0.01 0.01 0.01 0.01 0.01 0.01 0.01 0.01 0.02 0.04 0.03 0.02 0.01 0.02 0.02 0.02 0.02 0.02 0.02 0.00 0.01 0.00 0.00 0.01 0.05 0.06 0.06 0.06 0.06 0.05
0.03 0.03 0.02 0.01 0.00 0.00 0.00 0.00 0.00 0.00 0.01 0.01 0.01 0.01 0.01 0.01 0.01 0.01 0.01 0.01 0.02 0.01 0.02 0.02 0.02 0.02 0.02 0.02 0.02 0.02 0.02 0.02 0.01 0.01 0.01 0.01 0.01 0.01 0.03 0.06 0.08 0.07 0.06 0.05
0.02 0.02 0.02 0.02 0.01 0.01 0.00 0.00 0.00 0.00 0.00 0.00 0.00 0.01 0.01 0.01 0.01 0.02 0.03 0.03 0.02 0.02 0.02 0.02 0.01 0.02 0.03 0.02 0.02 0.02 0.02 0.02 0.01 0.01 0.01 0.01 0.01 0.01 0.02 0.03 0.05 0.06 0.06 0.05
0.02 0.01 0.01 0.01 0.01 0.01 0.00 0.00 0.00 0.00 0.00 0.00 0.00 0.00 0.01 0.01 0.01 0.02 0.04 0.04 0.04 0.04 0.03 0.03 0.02 0.02 0.03 0.02 0.02 0.02 0.03 0.02 0.02 0.01 0.01 0.01 0.02 0.02 0.02 0.02 0.02 0.04 0.04 0.05
0.03 0.01 0.01 0.00 0.00 0.00 0.00 0.00 0.01 0.01 0.01 0.00 0.00 0.00 0.01 0.01 0.01 0.02 0.04 0.04 0.04 0.04 0.04 0.04 0.02 0.02 0.03 0.03 0.04 0.04 0.04 0.03 0.03 0.03 0.03 0.02 0.02 0.03 0.02 0.02 0.02 0.02 0.03 0.03
0.02 0.01 0.01 0.01 0.01 0.01 0.01 0.02 0.02 0.02 0.02 0.01 0.01 0.01 0.01 0.01 0.01 0.02 0.04 0.05 0.05 0.06 0.06 0.04 0.03 0.03 0.04 0.04 0.04 0.04 0.03 0.03 0.04 0.04 0.04 0.04 0.03 0.02 0.03 0.04 0.04 0.03 0.02 0.03
0.02 0.02 0.02 0.02 0.02 0.03 0.04 0.04 0.03 0.02 0.02 0.02 0.01 0.01 0.01 0.01 0.02 0.03 0.05 0.08 0.07 0.05 0.06 0.05 0.04 0.03 0.04 0.04 0.04 0.04 0.04 0.03 0.03 0.03 0.03 0.03 0.02 0.02 0.02 0.02 0.02 0.03 0.02 0.03
0.02 0.02 0.02 0.02 0.03 0.05 0.07 0.05 0.03 0.02 0.01 0.02 0.02 0.02 0.02 0.02 0.02 0.04 0.08 0.08 0.09 0.06 0.04 0.04 0.05 0.03 0.04 0.04 0.04 0.05 0.05 0.05 0.04 0.03 0.03 0.03 0.02 0.03 0.03 0.02 0.02 0.02 0.02 0.03
0.02 0.02 0.02 0.03 0.05 0.08 0.07 0.05 0.03 0.02 0.02 0.02 0.02 0.03 0.03 0.03 0.03 0.05 0.10 0.09 0.11 0.09 0.05 0.03 0.03 0.04 0.04 0.05 0.05 0.05 0.05 0.05 0.04 0.05 0.04 0.04 0.03 0.04 0.04 0.03 0.02 0.02 0.03 0.04
0.03 0.02 0.01 0.03 0.05 0.08 0.08 0.07 0.05 0.03 0.03 0.03 0.04 0.05 0.05 0.05 0.06 0.08 0.13 0.10 0.09 0.09 0.07 0.05 0.04 0.03 0.03 0.04 0.04 0.04 0.05 0.06 0.07 0.07 0.07 0.08 0.07 0.06 0.05 0.04 0.03 0.02 0.03 0.04
0.04 0.03 0.02 0.03 0.05 0.05 0.08 0.10 0.08 0.06 0.06 0.05 0.06 0.06 0.05 0.06 0.08 0.10 0.12 0.09 0.07 0.05 0.05 0.05 0.04 0.03 0.03 0.02 0.02 0.03 0.04 0.06 0.07 0.07 0.07 0.08 0.06 0.06 0.05 0.04 0.03 0.03 0.03 0.04
0.06 0.06 0.06 0.06 0.07 0.07 0.08 0.11 0.12 0.12 0.10 0.09 0.08 0.07 0.07 0.07 0.10 0.13 0.13 0.08 0.05 0.05 0.04 0.03 0.03 0.02 0.03 0.02 0.03 0.03 0.04 0.04 0.05 0.06 0.06 0.05 0.05 0.04 0.04 0.04 0.04 0.03 0.04 0.06
0.09 0.09 0.09 0.08 0.09 0.08 0.08 0.08 0.10 0.12 0.12 0.10 0.09 0.09 0.08 0.10 0.13 0.12 0.14 0.11 0.07 0.05 0.04 0.03 0.04 0.04 0.04 0.04 0.04 0.04 0.05 0.05 0.04 0.04 0.04 0.04 0.03 0.03 0.03 0.04 0.03 0.04 0.05 0.06
0.08 0.07 0.06 0.06 0.06 0.07 0.09 0.08 0.08 0.08 0.09 0.08 0.08 0.10 0.11 0.11 0.10 0.10 0.10 0.10 0.08 0.07 0.06 0.06 0.06 0.06 0.05 0.05 0.06 0.05 0.04 0.05 0.04 0.04 0.03 0.03 0.02 0.03 0.03 0.04 0.04 0.04 0.05 0.05
0.07 0.06 0.05 0.06 0.06 0.07 0.07 0.06 0.06 0.05 0.06 0.06 0.07 0.11 0.11 0.09 0.08 0.07 0.07 0.08 0.08 0.08 0.07 0.06 0.05 0.04 0.04 0.03 0.04 0.05 0.04 0.03 0.02 0.03 0.02 0.03 0.03 0.03 0.04 0.04 0.05 0.06 0.05 0.04
0.05 0.05 0.05 0.06 0.05 0.05 0.05 0.04 0.04 0.03 0.04 0.05 0.07 0.09 0.08 0.06 0.07 0.07 0.07 0.07 0.07 0.07 0.07 0.07 0.06 0.06 0.05 0.04 0.04 0.05 0.05 0.04 0.03 0.02 0.03 0.03 0.03 0.04 0.05 0.05 0.05 0.05 0.05 0.04
MSLP
1003.35 1003.25 1003.22 1003.29 1003.48 1003.78 1004.13 1004.47 1004.72 1004.81 1004.71 1004.38 1003.87 1003.23 1002.55 1001.93 1001.44 1001.16 1001.12 1001.32 1001.73 1002.30 1002.98 1003.70 1004.41 1005.09 1005.72 1006.28 1006.80 1007.26 1007.69 1008.08 1008.42 1008.72 1008.95 1009.13 1009.27 1009.38 1009.48 1009.60 1009.74 1009.94 1010.20 1010.50
1003.92 1003.62 1003.32 1003.09 1002.96 1002.93 1003.01 1003.14 1003.27 1003.34 1003.29 1003.11 1002.77 1002.33 1001.84 1001.36 1000.96 1000.71 1000.64 1000.78 1001.10 1001.59 1002.20 1002.88 1003.59 1004.29 1004.96 1005.58 1006.14 1006.64 1007.09 1007.48 1007.81 1008.08 1008.30 1008.47 1008.60 1008.72 1008.85 1009.00 1009.19 1009.44 1009.74 1010.09
1004.43 1003.93 1003.40 1002.88 1002.44 1002.12 1001.93 1001.84 1001.83 1001.84 1001.81 1001.72 1001.53 1001.25 1000.92 1000.57 1000.26 1000.05 999.97 1000.06 1000.32 1000.73 1001.28 1001.92 1002.62 1003.34 1004.04 1004.71 1005.33 1005.88 1006.36 1006.77 1007.11 1007.39 1007.61 1007.79 1007.94 1008.08 1008.23 1008.41 1008.64 1008.92 1009.25 1009.62
1004.79 1004.13 1003.39 1002.64 1001.94 1001.37 1000.94 1000.65 1000.50 1000.43 1000.40 1000.36 1000.26 1000.11 999.90 999.66 999.43 999.25 999.17 999.23 999.43 999.79 1000.28 1000.88 1001.56 1002.28 1003.01 1003.72 1004.39 1004.99 1005.52 1005.97 1006.35 1006.66 1006.92 1007.13 1007.31 1007.49 1007.68 1007.90 1008.16 1008.46 1008.80 1009.18
1004.98 1004.19 1003.29 1002.37 1001.49 1000.72 1000.11 999.67 999.39 999.24 999.18 999.16 999.12 999.05 998.93 998.77 998.61 998.47 998.39 998.42 998.58 998.88 999.32 999.87 1000.52 1001.22 1001.96 1002.69 1003.39 1004.04 1004.62 1005.13 1005.57 1005.94 1006.25 1006.53 1006.78 1007.02 1007.26 1007.52 1007.81 1008.14 1008.49 1008.87
1004.98 1004.10 1003.11 1002.09 1001.10 1000.22 999.49 998.94 998.58 998.37 998.28 998.25 998.25 998.22 998.17 998.07 997.95 997.84 997.77 997.79 997.91 998.15 998.53 999.02 999.61 1000.28 1000.99 1001.72 1002.43 1003.11 1003.74 1004.31 1004.82 1005.27 1005.67 1006.03 1006.37 1006.69 1007.00 1007.32 1007.66 1008.01 1008.37 1008.74
1004.83 1003.91 1002.89 1001.84 1000.82 999.90 999.13 998.53 998.12 997.88 997.76 997.72 997.73 997.73 997.71 997.65 997.57 997.48 997.42 997.41 997.50 997.69 998.00 998.42 998.94 999.55 1000.21 1000.91 1001.61 1002.30 1002.96 1003.58 1004.16 1004.69 1005.19 1005.65 1006.09 1006.50 1006.90 1007.30 1007.68 1008.07 1008.45 1008.82
1004.59 1003.68 1002.68 1001.66 1000.68 999.79 999.04 998.45 998.03 997.77 997.63 997.59 997.59 997.59 997.58 997.54 997.48 997.41 997.35 997.33 997.38 997.52 997.77 998.11 998.56 999.09 999.68 1000.32 1000.99 1001.67 1002.34 1002.99 1003.63 1004.24 1004.83 1005.39 1005.92 1006.44 1006.93 1007.40 1007.85 1008.27 1008.68 1009.06
1004.31 1003.44 1002.52 1001.59 1000.70 999.89 999.21 998.67 998.27 998.01 997.86 997.79 997.77 997.76 997.74 997.70 997.64 997.57 997.51 997.48 997.50 997.61 997.79 998.07 998.43 998.88 999.40 999.97 1000.59 1001.23 1001.90 1002.57 1003.24 1003.91 1004.57 1005.21 1005.84 1006.43 1007.01 1007.55 1008.05 1008.52 1008.96 1009.36
1004.02 1003.24 1002.42 1001.62 1000.86 1000.18 999.59 999.12 998.76 998.51 998.34 998.24 998.17 998.13 998.07 998.01 997.93 997.85 997.78 997.75 997.75 997.83 997.97 998.19 998.49 998.87 999.31 999.82 1000.38 1000.99 1001.63 1002.29 1002.98 1003.68 1004.39 1005.08 1005.77 1006.43 1007.06 1007.65 1008.20 1008.71 1009.18 1009.60
1003.72 1003.04 1002.37 1001.73 1001.12 1000.58 1000.11 999.71 999.39 999.13 998.94 998.79 998.66 998.54 998.43 998.32 998.21 998.11 998.03 997.98 997.99 998.04 998.16 998.35 998.61 998.94 999.34 999.79 1000.31 1000.87 1001.49 1002.14 1002.82 1003.52 1004.24 1004.96 1005.67 1006.35 1007.01 1007.63 1008.21 1008.75 1009.23 1009.67
1003.36 1002.83 1002.32 1001.84 1001.40 1001.00 1000.63 1000.31 1000.02 999.75 999.51 999.29 999.08 998.88 998.69 998.51 998.35 998.22 998.12 998.07 998.07 998.13 998.25 998.43 998.68 998.99 999.36 999.79 1000.28 1000.82 1001.41 1002.04 1002.70 1003.39 1004.10 1004.81 1005.50 1006.18 1006.84 1007.46 1008.04 1008.58 1009.08 1009.53
1002.92 1002.53 1002.19 1001.88 1001.60 1001.33 1001.07 1000.80 1000.53 1000.25 999.95 999.65 999.34 999.04 998.76 998.50 998.28 998.11 997.99 997.93 997.93 998.01 998.14 998.34 998.61 998.93 999.31 999.74 1000.23 1000.76 1001.34 1001.95 1002.60 1003.26 1003.94 1004.61 1005.28 1005.93 1006.56 1007.15 1007.72 1008.25 1008.74 1009.19
1002.37 1002.13 1001.94 1001.79 1001.65 1001.49 1001.32 1001.10 1000.84 1000.53 1000.18 999.80 999.40 999.01 998.63 998.30 998.01 997.79 997.65 997.58 997.59 997.68 997.84 998.07 998.37 998.72 999.12 999.58 1000.09 1000.64 1001.22 1001.83 1002.47 1003.11 1003.76 1004.40 1005.03 1005.63 1006.22 1006.78 1007.31 1007.82 1008.30 1008.75
1001.69 1001.59 1001.54 1001.52 1001.49 1001.43 1001.32 1001.14 1000.89 1000.56 1000.16 999.72 999.25 998.78 998.34 997.94 997.61 997.35 997.18 997.10 997.12 997.22 997.41 997.66 997.99 998.38 998.82 999.32 999.86 1000.44 1001.04 1001.67 1002.30 1002.94 1003.57 1004.18 1004.77 1005.34 1005.89 1006.42 1006.92 1007.41 1007.87 1008.32
1000.93 1000.93 1000.99 1001.06 1001.12 1001.13 1001.07 1000.91 1000.66 1000.33 999.91 999.43 998.93 998.42 997.95 997.52 997.16 996.88 996.70 996.62 996.64 996.74 996.94 997.21 997.56 997.98 998.46 998.99 999.57 1000.18 1000.81 1001.46 1002.12 1002.76 1003.39 1003.99 1004.57 1005.12 1005.64 1006.14 1006.63 1007.10 1007.56 1008.01
1000.14 1000.21 1000.33 1000.46 1000.56 1000.60 1000.56 1000.42 1000.19 999.86 999.45 998.98 998.49 998.00 997.53 997.12 996.77 996.50 996.33 996.25 996.26 996.37 996.56 996.83 997.19 997.61 998.11 998.66 999.26 999.90 1000.57 1001.25 1001.93 1002.60 1003.24 1003.85 1004.43 1004.98 1005.50 1006.00 1006.48 1006.95 1007.42 1007.87
999.39 999.49 999.62 999.75 999.85 999.89 999.85 999.72 999.50 999.20 998.83 998.41 997.98 997.55 997.16 996.80 996.51 996.29 996.14 996.08 996.10 996.19 996.37 996.63 996.96 997.37 997.85 998.41 999.02 999.68 1000.37 1001.07 1001.78 1002.47 1003.14 1003.78 1004.38 1004.94 1005.47 1005.98 1006.47 1006.95 1007.43 1007.89
998.76 998.83 998.92 999.01 999.07 999.07 999.00 998.87 998.66 998.40 998.09 997.77 997.44 997.13 996.84 996.60 996.41 996.27 996.18 996.16 996.19 996.28 996.43 996.66 996.96 997.33 997.78 998.31 998.91 999.56 1000.25 1000.97 1001.70 1002.41 1003.11 1003.77 1004.39 1004.97 1005.52 1006.05 1006.55 1007.05 1007.53 1008.01
998.27 998.28 998.29 998.30 998.27 998.21 998.09 997.93 997.73 997.52 997.29 997.08 996.88 996.72 996.59 996.49 996.43 996.41 996.41 996.44 996.50 996.60 996.74 996.93 997.19 997.52 997.92 998.41 998.97 999.60 1000.28 1000.99 1001.72 1002.44 1003.14 1003.81 1004.45 1005.04 1005.61 1006.14 1006.65 1007.15 1007.63 1008.11
997.94 997.86 997.77 997.66 997.53 997.36 997.18 996.98 996.79 996.61 996.47 996.37 996.32 996.32 996.36 996.43 996.52 996.63 996.74 996.85 996.96 997.09 997.22 997.40 997.62 997.90 998.26 998.70 999.22 999.81 1000.46 1001.14 1001.85 1002.56 1003.25 1003.91 1004.53 1005.12 1005.67 1006.19 1006.69 1007.17 1007.65 1008.12
997.74 997.56 997.35 997.12 996.86 996.60 996.33 996.09 995.88 995.74 995.67 995.68 995.76 995.92 996.12 996.36 996.61 996.86 997.09 997.29 997.47 997.63 997.79 997.96 998.17 998.43 998.75 999.15 999.63 1000.18 1000.78 1001.43 1002.09 1002.76 1003.41 1004.04 1004.62 1005.17 1005.69 1006.17 1006.64 1007.09 1007.54 1007.98
997.61 997.34 997.02 996.68 996.30 995.93 995.59 995.29 995.08 994.96 994.94 995.04 995.24 995.52 995.86 996.25 996.64 997.01 997.35 997.65 997.91 998.13 998.33 998.52 998.74 998.99 999.30 999.68 1000.13 1000.64 1001.20 1001.79 1002.41 1003.02 1003.61 1004.18 1004.71 1005.20 1005.65 1006.09 1006.50 1006.90 1007.30 1007.71
997.50 997.15 996.75 996.31 995.85 995.39 994.98 994.65 994.42 994.31 994.33 994.49 994.76 995.14 995.59 996.08 996.57 997.05 997.48 997.87 998.20 998.48 998.73 998.97 999.21 999.49 999.81 1000.18 1000.62 1001.10 1001.63 1002.18 1002.74 1003.29 1003.82 1004.31 1004.77 1005.19 1005.57 1005.93 1006.29 1006.63 1006.99 1007.35
997.33 996.95 996.49 996.00 995.48 994.98 994.53 994.18 993.94 993.84 993.88 994.07 994.39 994.82 995.32 995.87 996.42 996.96 997.45 997.89 998.28 998.62 998.93 999.22 999.51 999.82 1000.17 1000.57 1001.01 1001.48 1001.99 1002.50 1003.02 1003.51 1003.97 1004.40 1004.78 1005.13 1005.45 1005.75 1006.04 1006.34 1006.65 1006.99
997.08 996.69 996.22 995.71 995.19 994.68 994.24 993.89 993.65 993.57 993.62 993.82 994.16 994.59 995.11 995.66 996.22 996.77 997.29 997.75 998.17 998.55 998.90 999.24 999.58 999.94 1000.33 1000.75 1001.21 1001.69 1002.19 1002.69 1003.17 1003.62 1004.03 1004.40 1004.72 1005.01 1005.28 1005.54 1005.79 1006.06 1006.35 1006.66
996.73 996.36 995.92 995.44 994.95 994.49 994.08 993.77 993.57 993.50 993.57 993.77 994.09 994.51 994.99 995.51 996.04 996.56 997.05 997.50 997.92 998.31 998.69 999.05 999.43 999.83 1000.26 1000.72 1001.20 1001.69 1002.19 1002.67 1003.13 1003.55 1003.93 1004.27 1004.56 1004.82 1005.06 1005.29 1005.53 1005.79 1006.08 1006.40
Thickness
5811 5824 5830 5829 5830 5835 5831 5830 5822 5829 5835 5840 5846 5849 5850 5851 5851 5849 5845 5843 5839 5836 5833 5830 5828 5825 5824 5821 5819 5816 5811 5806 5802 5800 5797 5793 5790 5787 5784 5781 5778 5774 5771 5768
5797 5813 5819 5818 5826 5832 5832 5833 5831 5831 5831 5849 5850 5849 5843 5844 5844 5841 5838 5837 5836 5833 5830 5827 5824 5821 5819 5817 5815 5812 5807 5803 5801 5798 5795 5792 5789 5786 5782 5779 5776 5773 5769 5766
5778 5800 5802 5794 5816 5823 5828 5835 5833 5824 5832 5846 5840 5838 5837 5839 5838 5836 5835 5833 5831 5829 5827 5824 5821 5819 5815 5813 5812 5807 5804 5801 5798 5795 5792 5789 5787 5783 5779 5776 5773 5770 5767 5764
5771 5776 5759 5799 5833 5832 5826 5832 5838 5837 5839 5840 5838 5839 5840 5839 5834 5830 5831 5830 5828 5827 5824 5822 5820 5817 5814 5811 5807 5803 5800 5797 5795 5792 5788 5786 5783 5780 5777 5774 5771 5768 5765 5762
5761 5758 5770 5799 5818 5821 5812 5811 5830 5829 5830 5832 5835 5829 5824 5832 5832 5829 5828 5827 5826 5825 5822 5818 5815 5812 5809 5805 5802 5798 5795 5792 5791 5789 5785 5782 5779 5776 5774 5770 5767 5764 5762 5759
5752 5747 5751 5785 5814 5825 5812 5792 5819 5823 5819 5819 5818 5801 5802 5821 5824 5823 5822 5821 5821 5819 5817 5812 5810 5807 5801 5798 5795 5792 5791 5789 5788 5786 5782 5778 5776 5773 5770 5767 5764 5761 5758 5755
5742 5744 5763 5795 5810 5809 5775 5777 5806 5811 5810 5809 5803 5801 5805 5813 5812 5813 5813 5813 5814 5811 5807 5804 5803 5799 5793 5791 5789 5789 5788 5785 5783 5781 5778 5775 5772 5769 5766 5762 5759 5756 5753 5751
5739 5736 5750 5791 5795 5779 5776 5793 5797 5798 5801 5799 5798 5799 5800 5800 5800 5801 5801 5802 5802 5800 5798 5798 5797 5791 5786 5784 5786 5784 5781 5779 5776 5774 5772 5770 5765 5762 5760 5756 5752 5749 5746 5744
5745 5747 5767 5779 5777 5779 5784 5782 5784 5786 5788 5788 5786 5786 5788 5787 5788 5788 5789 5790 5791 5789 5788 5788 5788 5785 5779 5779 5779 5776 5773 5770 5768 5766 5764 5762 5758 5754 5752 5750 5747 5743 5741 5738
5741 5748 5759 5767 5771 5773 5775 5774 5777 5779 5779 5779 5776 5776 5775 5775 5776 5776 5777 5778 5779 5778 5776 5776 5778 5777 5775 5774 5772 5768 5764 5762 5760 5758 5756 5754 5751 5749 5746 5744 5742 5739 5737 5734
5729 5739 5746 5753 5757 5761 5764 5767 5768 5769 5770 5768 5766 5765 5764 5763 5764 5764 5765 5767 5768 5767 5766 5767 5769 5768 5768 5766 5763 5759 5755 5753 5752 5751 5749 5746 5744 5741 5741 5740 5738 5735 5733 5730
5715 5729 5731 5735 5746 5751 5750 5751 5754 5755 5756 5758 5757 5754 5753 5752 5753 5753 5754 5755 5755 5756 5756 5757 5759 5758 5759 5759 5756 5751 5747 5745 5745 5744 5742 5740 5737 5734 5732 5731 5729 5728 5726 5724
5720 5727 5730 5734 5738 5740 5739 5741 5744 5745 5744 5744 5745 5745 5743 5742 5743 5743 5743 5744 5744 5746 5748 5749 5749 5749 5750 5750 5747 5744 5741 5739 5738 5737 5736 5733 5731 5728 5725 5722 5719 5718 5716 5714
5714 5715 5715 5720 5723 5727 5729 5731 5733 5734 5735 5735 5734 5733 5732 5732 5732 5732 5732 5734 5736 5738 5740 5740 5740 5740 5742 5741 5738 5736 5735 5733 5731 5730 5729 5727 5725 5723 5721 5717 5713 5710 5706 5703
5703 5705 5706 5710 5712 5715 5717 5719 5718 5719 5721 5722 5723 5723 5722 5720 5720 5721 5723 5726 5728 5729 5730 5731 5730 5732 5733 5732 5730 5728 5727 5726 5725 5724 5723 5721 5719 5717 5715 5711 5709 5705 5702 5695
5693 5697 5699 5699 5700 5703 5705 5706 5706 5707 5709 5710 5710 5711 5713 5713 5713 5714 5715 5717 5716 5718 5721 5722 5723 5724 5725 5723 5721 5720 5719 5718 5716 5716 5715 5713 5711 5709 5707 5704 5702 5699 5696 5691
5679 5682 5685 5686 5689 5691 5694 5696 5696 5697 5698 5698 5700 5702 5703 5702 5703 5704 5706 5709 5710 5711 5713 5714 5714 5716 5716 5715 5713 5712 5712 5711 5708 5708 5708 5707 5704 5702 5700 5698 5695 5692 5689 5686
5675 5676 5678 5679 5680 5681 5682 5685 5686 5687 5686 5687 5690 5691 5691 5691 5692 5694 5697 5699 5701 5703 5705 5706 5707 5707 5708 5707 5705 5705 5704 5703 5702 5701 5700 5699 5696 5695 5694 5691 5687 5684 5681 5678
5669 5669 5671 5672 5673 5672 5672 5673 5675 5677 5678 5679 5680 5680 5681 5683 5684 5685 5688 5689 5690 5691 5695 5698 5697 5697 5697 5698 5697 5696 5696 5695 5694 5693 5692 5689 5688 5687 5686 5683 5681 5678 5675 5671
5661 5662 5664 5664 5664 5663 5663 5665 5665 5666 5668 5670 5670 5671 5672 5674 5676 5677 5678 5680 5684 5687 5689 5689 5688 5688 5688 5689 5687 5688 5688 5687 5686 5684 5683 5681 5679 5677 5676 5675 5673 5670 5667 5664
5651 5653 5654 5654 5654 5655 5655 5656 5655 5656 5659 5661 5661 5662 5663 5666 5668 5669 5669 5671 5677 5679 5680 5679 5679 5679 5680 5679 5677 5680 5680 5679 5677 5676 5674 5672 5671 5669 5667 5665 5663 5662 5659 5657
5642 5644 5645 5646 5647 5646 5647 5648 5649 5650 5652 5652 5654 5655 5656 5657 5659 5661 5664 5665 5669 5669 5671 5672 5672 5670 5670 5668 5670 5670 5670 5670 5668 5666 5664 5663 5662 5660 5658 5657 5654 5653 5651 5649
5634 5635 5636 5638 5638 5639 5640 5641 5642 5644 5644 5645 5646 5647 5649 5651 5652 5653 5656 5659 5661 5660 5662 5662 5661 5659 5658 5660 5661 5661 5660 5660 5659 5657 5655 5654 5653 5652 5651 5649 5646 5644 5642 5640
5626 5627 5629 5631 5632 5631 5630 5633 5636 5638 5639 5641 5642 5643 5644 5645 5647 5650 5651 5650 5650 5650 5651 5649 5648 5648 5648 5650 5651 5651 5650 5649 5648 5648 5647 5646 5646 5646 5644 5641 5639 5637 5635 5633
5620 5622 5624 5625 5625 5625 5627 5629 5631 5632 5632 5635 5637 5638 5639 5640 5640 5643 5643 5643 5641 5641 5642 5641 5639 5639 5640 5641 5642 5642 5641 5640 5639 5638 5637 5637 5637 5637 5636 5634 5632 5630 5628 5626
5616 5617 5619 5620 5621 5622 5624 5626 5627 5627 5628 5628 5629 5631 5632 5633 5634 5635 5635 5635 5635 5634 5634 5633 5633 5632 5632 5633 5633 5633 5632 5631 5631 5631 5630 5629 5628 5628 5628 5627 5625 5624 5621 5619
5614 5615 5615 5617 5620 5622 5623 5624 5624 5624 5624 5624 5624 5625 5626 5626 5627 5627 5628 5628 5628 5628 5627 5627 5627 5627 5627 5627 5626 5626 5626 5625 5624 5623 5622 5621 5620 5620 5619 5618 5617 5616 5614 5613